Location: Unspecified
(0.0000°N, 0.0000°E)
Time: 23:24:52
(UTC+02:00)

GPS 2-15 Rocket1 - Visible Passes

Search period start: 29 April 2017 00:00
Search period end: 09 May 2017 00:00
Orbit: 624 x 676 km, 19.8° (Epoch: 28 April)

Date Brightness Start Highest point End Pass type
(mag) Time Alt. Az. Time Alt. Az. Time Alt. Az.
29 Apr 4.9 20:33:10 10° NNW 20:36:35 20° NNE 20:40:01 10° ENE visible
29 Apr 5.2 22:16:18 10° WNW 22:18:08 23° NW 22:18:08 23° NW visible
30 Apr 5.5 07:03:23 10° S 07:05:12 12° SSE 07:07:01 10° SE visible
30 Apr 4.1 20:58:49 10° NW 21:03:04 35° NNE 21:05:14 23° ENE visible
30 Apr 6.2 22:42:39 10° WNW 22:42:53 11° WNW 22:42:53 11° WNW visible
01 May 5.2 07:28:27 10° SSW 07:31:53 18° SSE 07:35:18 10° ESE visible
01 May 3.0 21:24:51 10° WNW 21:29:28 69° NNE 21:30:00 62° ENE visible
02 May 5.5 06:13:36 12° SSE 06:13:44 12° SSE 06:15:50 10° SE visible
02 May 3.9 21:51:15 10° W 21:54:46 46° WSW 21:54:46 46° WSW visible
03 May 5.1 06:38:22 16° SSW 06:40:22 20° SSE 06:43:57 10° ESE visible
03 May 3.1 20:33:22 10° WNW 20:38:01 76° NNE 20:41:53 15° ESE visible
03 May 5.5 22:18:07 10° W 22:19:32 18° WSW 22:19:32 18° WSW visible
04 May 4.4 07:03:08 13° SW 07:06:53 33° SSE 07:11:20 10° E visible
04 May 3.5 20:59:51 10° W 21:04:24 54° SSW 21:06:40 27° SE visible
05 May 5.3 05:50:14 19° SE 05:50:14 19° SE 05:52:36 10° ESE visible
05 May 3.6 07:28:26 10° WSW 07:33:18 62° SSE 07:38:12 10° ENE visible
05 May 4.3 21:26:47 10° W 21:30:49 29° SSW 21:31:26 28° S visible
06 May 4.1 06:15:00 35° S 06:15:22 36° SSE 06:19:53 10° E visible
06 May 5.3 21:54:20 10° WSW 21:56:12 16° SW 21:56:12 16° SW visible
07 May 3.3 06:39:46 35° SW 06:41:46 68° SSE 06:46:40 10° ENE visible
07 May 4.6 20:35:26 10° WSW 20:39:23 26° SSW 20:43:18 10° SE visible
08 May 5.6 05:26:51 19° E 05:26:51 19° E 05:28:25 10° E visible
08 May 3.4 07:04:30 17° W 07:08:08 63° NNW 07:13:01 10° ENE visible
08 May 5.2 21:03:05 10° SW 21:05:55 16° SSW 21:08:02 12° SSE visible
